Time,TemperatureF,DewpointF,PressureIn,WindDirection,WindDirectionDegrees,WindSpeedMPH,WindSpeedGustMPH,Humidity,HourlyPrecipIn,Conditions,Clouds,dailyrainin,SoftwareType,DateUTC
2013-05-03 00:00:00,53.0,51.3,30.26,NE,46,0.0,0.0,94,0.00,,,0.00,Wunderground v.1.15,2013-05-03 04:00:00,
2013-05-03 00:05:00,53.0,51.3,30.26,NE,46,0.0,0.0,94,0.00,,,0.00,Wunderground v.1.15,2013-05-03 04:05:00,
2013-05-03 00:10:00,53.0,51.3,30.25,NE,46,0.0,0.0,94,0.00,,,0.00,Wunderground v.1.15,2013-05-03 04:10:00,
2013-05-03 00:15:00,53.0,51.0,30.25,NE,46,0.0,0.0,93,0.00,,,0.00,Wunderground v.1.15,2013-05-03 04:15:00,
2013-05-03 00:25:00,53.2,51.2,30.25,NE,46,0.0,1.0,93,0.00,,,0.00,Wunderground v.1.15,2013-05-03 04:25:00,
2013-05-03 00:30:00,53.2,51.2,30.25,NE,46,0.0,0.0,93,0.00,,,0.00,Wunderground v.1.15,2013-05-03 04:30:00,
2013-05-03 00:35:00,53.2,50.9,30.25,NE,46,0.0,1.0,92,0.00,,,0.00,Wunderground v.1.15,2013-05-03 04:35:00,
2013-05-03 00:40:00,53.0,50.7,30.25,NE,46,0.0,1.0,92,0.00,,,0.00,Wunderground v.1.15,2013-05-03 04:40:00,
2013-05-03 00:45:00,53.0,50.7,30.25,NE,46,0.0,1.0,92,0.00,,,0.00,Wunderground v.1.15,2013-05-03 04:45:00,
2013-05-03 00:50:00,53.0,50.4,30.24,NE,46,0.0,0.0,91,0.00,,,0.00,Wunderground v.1.15,2013-05-03 04:50:00,
2013-05-03 00:55:00,53.0,50.4,30.24,NE,46,0.0,0.0,91,0.00,,,0.00,Wunderground v.1.15,2013-05-03 04:55:00,
2013-05-03 01:00:00,53.0,50.4,30.25,NE,46,0.0,0.0,91,0.00,,,0.00,Wunderground v.1.15,2013-05-03 05:00:00,
2013-05-03 01:05:00,53.0,50.4,30.25,NE,46,0.0,0.0,91,0.00,,,0.00,Wunderground v.1.15,2013-05-03 05:05:00,
2013-05-03 01:10:00,52.9,50.3,30.25,NE,46,0.0,0.0,91,0.00,,,0.00,Wunderground v.1.15,2013-05-03 05:10:00,
2013-05-03 01:20:00,52.9,50.3,30.24,NE,46,0.0,0.0,91,0.00,,,0.00,Wunderground v.1.15,2013-05-03 05:20:00,
2013-05-03 01:30:00,52.7,50.1,30.24,NE,46,0.0,0.0,91,0.00,,,0.00,Wunderground v.1.15,2013-05-03 05:30:00,
2013-05-03 01:35:00,52.7,50.1,30.24,NE,46,0.0,0.0,91,0.00,,,0.00,Wunderground v.1.15,2013-05-03 05:35:00,
2013-05-03 01:40:00,52.6,50.0,30.24,NE,46,0.0,0.0,91,0.00,,,0.00,Wunderground v.1.15,2013-05-03 05:40:00,
2013-05-03 01:45:00,52.4,49.8,30.24,NE,46,0.0,0.0,91,0.00,,,0.00,Wunderground v.1.15,2013-05-03 05:45:00,
2013-05-03 01:55:00,52.3,49.8,30.23,NE,46,0.0,0.0,91,0.00,,,0.00,Wunderground v.1.15,2013-05-03 05:55:00,
2013-05-03 02:00:00,52.3,49.8,30.23,NE,46,0.0,0.0,91,0.00,,,0.00,Wunderground v.1.15,2013-05-03 06:00:00,
2013-05-03 02:10:00,52.0,49.5,30.23,NE,46,0.0,0.0,91,0.00,,,0.00,Wunderground v.1.15,2013-05-03 06:10:00,
2013-05-03 02:15:00,51.8,49.3,30.22,NE,46,0.0,0.0,91,0.00,,,0.00,Wunderground v.1.15,2013-05-03 06:15:00,
2013-05-03 02:20:00,51.8,49.3,30.23,NE,46,0.0,0.0,91,0.00,,,0.00,Wunderground v.1.15,2013-05-03 06:20:00,
2013-05-03 02:25:00,51.7,49.2,30.23,NE,46,0.0,0.0,91,0.00,,,0.00,Wunderground v.1.15,2013-05-03 06:25:00,
2013-05-03 02:30:00,51.7,49.2,30.23,NE,46,0.0,0.0,91,0.00,,,0.00,Wunderground v.1.15,2013-05-03 06:30:00,
2013-05-03 02:35:00,51.6,49.1,30.22,NE,46,0.0,0.0,91,0.00,,,0.00,Wunderground v.1.15,2013-05-03 06:35:00,
2013-05-03 02:40:00,51.6,49.1,30.22,NE,46,0.0,0.0,91,0.00,,,0.00,Wunderground v.1.15,2013-05-03 06:40:00,
2013-05-03 02:45:00,51.4,48.9,30.22,NE,46,0.0,0.0,91,0.00,,,0.00,Wunderground v.1.15,2013-05-03 06:45:00,
2013-05-03 02:50:00,51.3,48.8,30.22,NE,46,0.0,0.0,91,0.00,,,0.00,Wunderground v.1.15,2013-05-03 06:50:00,
2013-05-03 02:55:00,51.3,48.8,30.22,NE,46,0.0,0.0,91,0.00,,,0.00,Wunderground v.1.15,2013-05-03 06:55:00,
2013-05-03 03:00:00,51.1,48.6,30.22,NE,46,0.0,0.0,91,0.00,,,0.00,Wunderground v.1.15,2013-05-03 07:00:00,
2013-05-03 03:05:00,51.1,48.6,30.22,NE,46,0.0,0.0,91,0.00,,,0.00,Wunderground v.1.15,2013-05-03 07:05:00,
2013-05-03 03:10:00,51.1,48.6,30.22,NE,46,0.0,0.0,91,0.00,,,0.00,Wunderground v.1.15,2013-05-03 07:10:00,
2013-05-03 03:15:00,51.0,48.5,30.22,NE,46,0.0,0.0,91,0.00,,,0.00,Wunderground v.1.15,2013-05-03 07:15:00,
2013-05-03 03:20:00,51.0,48.5,30.22,NE,46,0.0,0.0,91,0.00,,,0.00,Wunderground v.1.15,2013-05-03 07:20:00,
2013-05-03 03:25:00,50.8,48.3,30.22,NE,46,0.0,0.0,91,0.00,,,0.00,Wunderground v.1.15,2013-05-03 07:25:00,
2013-05-03 03:30:00,50.8,48.3,30.22,NE,46,0.0,0.0,91,0.00,,,0.00,Wunderground v.1.15,2013-05-03 07:30:00,
2013-05-03 03:35:00,50.7,48.2,30.21,NE,46,0.0,0.0,91,0.00,,,0.00,Wunderground v.1.15,2013-05-03 07:35:00,
2013-05-03 03:40:00,50.7,48.5,30.21,NE,46,0.0,0.0,92,0.00,,,0.00,Wunderground v.1.15,2013-05-03 07:40:00,
2013-05-03 03:45:00,50.5,48.3,30.21,NE,46,0.0,0.0,92,0.00,,,0.00,Wunderground v.1.15,2013-05-03 07:45:00,
2013-05-03 03:50:00,50.4,48.2,30.21,NE,46,0.0,0.0,92,0.00,,,0.00,Wunderground v.1.15,2013-05-03 07:50:00,
2013-05-03 03:55:00,50.4,48.2,30.21,NE,46,0.0,0.0,92,0.00,,,0.00,Wunderground v.1.15,2013-05-03 07:55:00,
2013-05-03 04:00:00,50.2,48.0,30.21,NE,46,0.0,0.0,92,0.00,,,0.00,Wunderground v.1.15,2013-05-03 08:00:00,
2013-05-03 04:05:00,50.2,48.0,30.21,NE,46,0.0,0.0,92,0.00,,,0.00,Wunderground v.1.15,2013-05-03 08:05:00,
2013-05-03 04:10:00,50.1,47.9,30.21,NE,46,0.0,0.0,92,0.00,,,0.00,Wunderground v.1.15,2013-05-03 08:10:00,
2013-05-03 04:15:00,49.9,47.7,30.21,NE,46,0.0,0.0,92,0.00,,,0.00,Wunderground v.1.15,2013-05-03 08:15:00,
2013-05-03 04:20:00,49.9,47.7,30.21,NE,46,0.0,0.0,92,0.00,,,0.00,Wunderground v.1.15,2013-05-03 08:20:00,
2013-05-03 04:25:00,49.8,47.6,30.21,NE,46,0.0,0.0,92,0.00,,,0.00,Wunderground v.1.15,2013-05-03 08:25:00,
2013-05-03 04:30:00,49.8,47.6,30.21,NE,46,0.0,0.0,92,0.00,,,0.00,Wunderground v.1.15,2013-05-03 08:30:00,
2013-05-03 04:35:00,49.6,47.4,30.22,NE,46,0.0,0.0,92,0.00,,,0.00,Wunderground v.1.15,2013-05-03 08:35:00,
2013-05-03 04:40:00,49.6,47.4,30.22,NE,46,0.0,0.0,92,0.00,,,0.00,Wunderground v.1.15,2013-05-03 08:40:00,
2013-05-03 04:50:00,49.3,47.1,30.21,NE,46,0.0,0.0,92,0.00,,,0.00,Wunderground v.1.15,2013-05-03 08:50:00,
2013-05-03 04:55:00,49.3,47.1,30.22,NE,46,0.0,0.0,92,0.00,,,0.00,Wunderground v.1.15,2013-05-03 08:55:00,
2013-05-03 05:00:00,49.2,47.0,30.22,NE,46,0.0,0.0,92,0.00,,,0.00,Wunderground v.1.15,2013-05-03 09:00:00,
2013-05-03 05:05:00,49.2,47.0,30.22,NE,46,0.0,0.0,92,0.00,,,0.00,Wunderground v.1.15,2013-05-03 09:05:00,
2013-05-03 05:10:00,49.0,46.8,30.21,NE,46,0.0,0.0,92,0.00,,,0.00,Wunderground v.1.15,2013-05-03 09:10:00,
2013-05-03 05:20:00,48.9,46.7,30.22,NE,46,0.0,0.0,92,0.00,,,0.00,Wunderground v.1.15,2013-05-03 09:20:00,
2013-05-03 05:25:00,48.9,46.7,30.22,NE,46,0.0,0.0,92,0.00,,,0.00,Wunderground v.1.15,2013-05-03 09:25:00,
2013-05-03 05:30:00,48.7,46.5,30.22,NE,46,0.0,0.0,92,0.00,,,0.00,Wunderground v.1.15,2013-05-03 09:30:00,
2013-05-03 05:35:00,48.7,46.5,30.22,NE,46,0.0,0.0,92,0.00,,,0.00,Wunderground v.1.15,2013-05-03 09:35:00,
2013-05-03 05:40:00,48.6,46.4,30.22,NE,46,0.0,0.0,92,0.00,,,0.00,Wunderground v.1.15,2013-05-03 09:40:00,
2013-05-03 05:45:00,48.4,46.2,30.22,NE,46,0.0,0.0,92,0.00,,,0.00,Wunderground v.1.15,2013-05-03 09:45:00,
2013-05-03 05:50:00,48.4,46.2,30.22,NE,46,0.0,0.0,92,0.00,,,0.00,Wunderground v.1.15,2013-05-03 09:50:00,
2013-05-03 05:55:00,48.4,46.2,30.22,NE,46,0.0,0.0,92,0.00,,,0.00,Wunderground v.1.15,2013-05-03 09:55:00,
2013-05-03 06:00:00,48.3,46.1,30.22,NE,46,0.0,0.0,92,0.00,,,0.00,Wunderground v.1.15,2013-05-03 10:00:00,
2013-05-03 06:05:00,48.3,46.1,30.22,NE,46,0.0,0.0,92,0.00,,,0.00,Wunderground v.1.15,2013-05-03 10:05:00,
2013-05-03 06:10:00,48.3,46.4,30.22,NE,46,0.0,0.0,93,0.00,,,0.00,Wunderground v.1.15,2013-05-03 10:10:00,
2013-05-03 06:15:00,48.1,46.2,30.22,NE,46,0.0,0.0,93,0.00,,,0.00,Wunderground v.1.15,2013-05-03 10:15:00,
2013-05-03 06:20:00,48.1,46.2,30.22,NE,46,0.0,0.0,93,0.00,,,0.00,Wunderground v.1.15,2013-05-03 10:20:00,
2013-05-03 06:25:00,48.1,46.2,30.22,NE,46,0.0,0.0,93,0.00,,,0.00,Wunderground v.1.15,2013-05-03 10:25:00,
2013-05-03 06:30:00,48.1,46.2,30.22,NE,46,0.0,0.0,93,0.00,,,0.00,Wunderground v.1.15,2013-05-03 10:30:00,
2013-05-03 06:35:00,48.1,46.2,30.23,NE,46,0.0,0.0,93,0.00,,,0.00,Wunderground v.1.15,2013-05-03 10:35:00,
2013-05-03 06:40:00,48.1,46.2,30.23,NE,46,0.0,0.0,93,0.00,,,0.00,Wunderground v.1.15,2013-05-03 10:40:00,
2013-05-03 06:45:00,48.1,46.2,30.23,NE,46,0.0,0.0,93,0.00,,,0.00,Wunderground v.1.15,2013-05-03 10:45:00,
2013-05-03 06:50:00,48.1,46.2,30.23,NE,46,0.0,0.0,93,0.00,,,0.00,Wunderground v.1.15,2013-05-03 10:50:00,
2013-05-03 06:55:00,48.1,46.2,30.23,NE,46,0.0,0.0,93,0.00,,,0.00,Wunderground v.1.15,2013-05-03 10:55:00,
2013-05-03 07:00:00,48.1,46.2,30.23,NE,46,0.0,0.0,93,0.00,,,0.00,Wunderground v.1.15,2013-05-03 11:00:00,
2013-05-03 07:05:00,48.1,46.2,30.24,NE,46,0.0,0.0,93,0.00,,,0.00,Wunderground v.1.15,2013-05-03 11:05:00,
2013-05-03 07:10:00,48.1,46.2,30.23,NE,46,1.0,1.0,93,0.00,,,0.00,Wunderground v.1.15,2013-05-03 11:10:00,
2013-05-03 07:15:00,48.1,46.2,30.24,NE,46,0.0,1.0,93,0.00,,,0.00,Wunderground v.1.15,2013-05-03 11:15:00,
2013-05-03 07:20:00,48.3,46.4,30.24,NE,46,0.0,1.0,93,0.00,,,0.00,Wunderground v.1.15,2013-05-03 11:20:00,
2013-05-03 07:25:00,48.3,46.4,30.24,NE,46,1.0,1.0,93,0.00,,,0.00,Wunderground v.1.15,2013-05-03 11:25:00,
2013-05-03 07:30:00,48.3,46.4,30.24,NE,46,1.0,2.0,93,0.00,,,0.00,Wunderground v.1.15,2013-05-03 11:30:00,
2013-05-03 07:35:00,48.3,46.4,30.24,NE,46,1.0,2.0,93,0.00,,,0.00,Wunderground v.1.15,2013-05-03 11:35:00,
2013-05-03 07:40:00,48.4,46.5,30.24,NE,46,1.0,1.0,93,0.00,,,0.00,Wunderground v.1.15,2013-05-03 11:40:00,
2013-05-03 07:45:00,48.6,46.7,30.24,NE,46,1.0,1.0,93,0.00,,,0.00,Wunderground v.1.15,2013-05-03 11:45:00,
2013-05-03 07:50:00,48.7,46.8,30.24,NE,46,1.0,1.0,93,0.00,,,0.00,Wunderground v.1.15,2013-05-03 11:50:00,
2013-05-03 07:55:00,48.7,46.8,30.25,NE,46,1.0,1.0,93,0.00,,,0.00,Wunderground v.1.15,2013-05-03 11:55:00,
2013-05-03 08:00:00,48.9,47.0,30.25,NE,46,1.0,1.0,93,0.00,,,0.00,Wunderground v.1.15,2013-05-03 12:00:00,
2013-05-03 08:05:00,49.0,46.8,30.24,NE,46,1.0,1.0,92,0.00,,,0.00,Wunderground v.1.15,2013-05-03 12:05:00,
2013-05-03 08:10:00,49.2,47.0,30.25,NE,46,1.0,1.0,92,0.00,,,0.00,Wunderground v.1.15,2013-05-03 12:10:00,
2013-05-03 08:15:00,49.2,47.0,30.25,NE,46,1.0,2.0,92,0.00,,,0.00,Wunderground v.1.15,2013-05-03 12:15:00,
2013-05-03 08:20:00,49.5,47.3,30.25,NE,46,2.0,2.0,92,0.00,,,0.00,Wunderground v.1.15,2013-05-03 12:20:00,
2013-05-03 08:25:00,49.6,47.1,30.25,NE,46,2.0,4.0,91,0.00,,,0.00,Wunderground v.1.15,2013-05-03 12:25:00,
2013-05-03 08:30:00,49.8,47.3,30.25,NE,46,2.0,2.0,91,0.00,,,0.00,Wunderground v.1.15,2013-05-03 12:30:00,
2013-05-03 08:40:00,50.1,47.0,30.25,NE,42,2.0,2.0,89,0.00,,,0.00,Wunderground v.1.15,2013-05-03 12:40:00,
2013-05-03 08:45:00,50.2,46.8,30.25,NNE,32,2.0,2.0,88,0.00,,,0.00,Wunderground v.1.15,2013-05-03 12:45:00,
2013-05-03 08:50:00,50.5,47.4,30.25,NE,38,2.0,2.0,89,0.00,,,0.00,Wunderground v.1.15,2013-05-03 12:50:00,
2013-05-03 09:00:00,51.1,46.7,30.25,ENE,57,3.0,4.0,85,0.00,,,0.00,Wunderground v.1.15,2013-05-03 13:00:00,
2013-05-03 09:05:00,51.4,47.0,30.25,ENE,57,2.0,4.0,85,0.00,,,0.00,Wunderground v.1.15,2013-05-03 13:05:00,
2013-05-03 09:15:00,52.1,47.1,30.25,NE,42,2.0,4.0,83,0.00,,,0.00,Wunderground v.1.15,2013-05-03 13:15:00,
2013-05-03 09:20:00,52.4,47.1,30.25,NE,45,2.0,2.0,82,0.00,,,0.00,Wunderground v.1.15,2013-05-03 13:20:00,
2013-05-03 09:30:00,53.0,47.3,30.25,NE,45,3.0,3.0,81,0.00,,,0.00,Wunderground v.1.15,2013-05-03 13:30:00,
2013-05-03 09:35:00,53.3,47.0,30.25,NE,44,4.0,4.0,79,0.00,,,0.00,Wunderground v.1.15,2013-05-03 13:35:00,
2013-05-03 09:40:00,53.5,47.5,30.25,NE,45,4.0,5.0,80,0.00,,,0.00,Wunderground v.1.15,2013-05-03 13:40:00,
2013-05-03 09:45:00,53.8,47.8,30.25,NE,44,4.0,5.0,80,0.00,,,0.00,Wunderground v.1.15,2013-05-03 13:45:00,
2013-05-03 09:50:00,54.1,48.4,30.25,NE,37,3.0,3.0,81,0.00,,,0.00,Wunderground v.1.15,2013-05-03 13:50:00,
2013-05-03 09:55:00,54.4,48.4,30.25,NE,51,2.0,3.0,80,0.00,,,0.00,Wunderground v.1.15,2013-05-03 13:55:00,
2013-05-03 10:00:00,54.5,48.1,30.25,NE,51,4.0,4.0,79,0.00,,,0.00,Wunderground v.1.15,2013-05-03 14:00:00,
2013-05-03 10:05:00,54.5,48.1,30.25,NE,45,4.0,5.0,79,0.00,,,0.00,Wunderground v.1.15,2013-05-03 14:05:00,
2013-05-03 10:10:00,54.7,48.3,30.25,NE,52,3.0,4.0,79,0.00,,,0.00,Wunderground v.1.15,2013-05-03 14:10:00,
2013-05-03 10:15:00,55.1,48.7,30.25,NE,40,2.0,4.0,79,0.00,,,0.00,Wunderground v.1.15,2013-05-03 14:15:00,
2013-05-03 10:20:00,55.4,48.7,30.25,NNE,15,2.0,4.0,78,0.00,,,0.00,Wunderground v.1.15,2013-05-03 14:20:00,
2013-05-03 10:25:00,55.8,49.0,30.25,NNE,30,2.0,4.0,78,0.00,,,0.00,Wunderground v.1.15,2013-05-03 14:25:00,
2013-05-03 10:30:00,56.1,48.6,30.25,NE,44,2.0,2.0,76,0.00,,,0.00,Wunderground v.1.15,2013-05-03 14:30:00,
2013-05-03 10:35:00,56.5,49.4,30.25,NE,42,1.0,2.0,77,0.00,,,0.00,Wunderground v.1.15,2013-05-03 14:35:00,
2013-05-03 10:40:00,56.9,49.4,30.25,NE,40,2.0,4.0,76,0.00,,,0.00,Wunderground v.1.15,2013-05-03 14:40:00,
2013-05-03 10:45:00,57.1,49.2,30.25,NE,37,2.0,4.0,75,0.00,,,0.00,Wunderground v.1.15,2013-05-03 14:45:00,
2013-05-03 10:50:00,57.1,48.9,30.25,NE,40,3.0,3.0,74,0.00,,,0.00,Wunderground v.1.15,2013-05-03 14:50:00,
2013-05-03 10:55:00,57.2,49.3,30.25,NE,54,3.0,3.0,75,0.00,,,0.00,Wunderground v.1.15,2013-05-03 14:55:00,
2013-05-03 11:00:00,57.5,49.6,30.25,NE,34,2.0,3.0,75,0.00,,,0.00,Wunderground v.1.15,2013-05-03 15:00:00,
2013-05-03 11:05:00,57.7,49.1,30.25,NE,53,3.0,3.0,73,0.00,,,0.00,Wunderground v.1.15,2013-05-03 15:05:00,
2013-05-03 11:10:00,57.8,49.2,30.25,NNE,24,4.0,4.0,73,0.00,,,0.00,Wunderground v.1.15,2013-05-03 15:10:00,
2013-05-03 11:15:00,58.0,49.0,30.25,NE,53,4.0,4.0,72,0.00,,,0.00,Wunderground v.1.15,2013-05-03 15:15:00,
2013-05-03 11:20:00,58.1,49.5,30.25,NE,42,3.0,4.0,73,0.00,,,0.00,Wunderground v.1.15,2013-05-03 15:20:00,
2013-05-03 11:25:00,58.3,49.7,30.25,NE,54,3.0,4.0,73,0.00,,,0.00,Wunderground v.1.15,2013-05-03 15:25:00,
2013-05-03 11:30:00,58.4,49.8,30.25,NE,46,3.0,6.0,73,0.00,,,0.00,Wunderground v.1.15,2013-05-03 15:30:00,
2013-05-03 11:35:00,58.6,50.7,30.25,NNE,31,3.0,6.0,75,0.00,,,0.00,Wunderground v.1.15,2013-05-03 15:35:00,
2013-05-03 11:40:00,58.7,49.7,30.25,NE,42,3.0,3.0,72,0.00,,,0.00,Wunderground v.1.15,2013-05-03 15:40:00,
2013-05-03 11:45:00,58.7,48.9,30.25,NNE,32,3.0,7.0,70,0.00,,,0.00,Wunderground v.1.15,2013-05-03 15:45:00,
2013-05-03 11:55:00,58.9,49.5,30.25,NE,37,4.0,4.0,71,0.00,,,0.00,Wunderground v.1.15,2013-05-03 15:55:00,
2013-05-03 12:00:00,59.2,49.8,30.25,East,98,2.0,2.0,71,0.00,,,0.00,Wunderground v.1.15,2013-05-03 16:00:00,
2013-05-03 12:05:00,59.8,49.6,30.25,NE,51,3.0,4.0,69,0.00,,,0.00,Wunderground v.1.15,2013-05-03 16:05:00,
2013-05-03 12:10:00,60.1,49.5,30.25,NE,41,4.0,4.0,68,0.00,,,0.00,Wunderground v.1.15,2013-05-03 16:10:00,
2013-05-03 12:15:00,60.1,49.5,30.25,East,101,4.0,4.0,68,0.00,,,0.00,Wunderground v.1.15,2013-05-03 16:15:00,
2013-05-03 12:20:00,60.0,49.8,30.25,NE,49,4.0,4.0,69,0.00,,,0.00,Wunderground v.1.15,2013-05-03 16:20:00,
2013-05-03 12:30:00,60.0,49.4,30.24,NE,34,3.0,4.0,68,0.00,,,0.00,Wunderground v.1.15,2013-05-03 16:30:00,
2013-05-03 12:40:00,60.1,49.5,30.24,NE,51,3.0,3.0,68,0.00,,,0.00,Wunderground v.1.15,2013-05-03 16:40:00,
2013-05-03 12:45:00,60.1,49.1,30.24,ENE,73,3.0,3.0,67,0.00,,,0.00,Wunderground v.1.15,2013-05-03 16:45:00,
2013-05-03 12:50:00,60.5,49.5,30.24,East,82,3.0,3.0,67,0.00,,,0.00,Wunderground v.1.15,2013-05-03 16:50:00,
2013-05-03 12:55:00,60.8,48.5,30.24,NE,48,3.0,5.0,64,0.00,,,0.00,Wunderground v.1.15,2013-05-03 16:55:00,
2013-05-03 13:00:00,61.1,48.8,30.23,East,82,3.0,5.0,64,0.00,,,0.00,Wunderground v.1.15,2013-05-03 17:00:00,
2013-05-03 13:05:00,61.2,49.3,30.23,ENE,57,4.0,5.0,65,0.00,,,0.00,Wunderground v.1.15,2013-05-03 17:05:00,
2013-05-03 13:10:00,61.6,49.3,30.23,NE,53,3.0,3.0,64,0.00,,,0.00,Wunderground v.1.15,2013-05-03 17:10:00,
2013-05-03 13:15:00,61.7,49.0,30.23,NE,41,3.0,3.0,63,0.00,,,0.00,Wunderground v.1.15,2013-05-03 17:15:00,
2013-05-03 13:20:00,61.9,49.2,30.22,NE,56,3.0,5.0,63,0.00,,,0.00,Wunderground v.1.15,2013-05-03 17:20:00,
2013-05-03 13:25:00,61.7,48.5,30.22,ENE,72,3.0,5.0,62,0.00,,,0.00,Wunderground v.1.15,2013-05-03 17:25:00,
2013-05-03 13:30:00,61.7,49.0,30.22,East,92,2.0,2.0,63,0.00,,,0.00,Wunderground v.1.15,2013-05-03 17:30:00,
2013-05-03 13:35:00,61.9,49.6,30.22,NE,41,2.0,2.0,64,0.00,,,0.00,Wunderground v.1.15,2013-05-03 17:35:00,
2013-05-03 13:40:00,61.9,48.7,30.22,NE,42,2.0,6.0,62,0.00,,,0.00,Wunderground v.1.15,2013-05-03 17:40:00,
2013-05-03 13:45:00,62.0,49.3,30.22,NE,49,2.0,6.0,63,0.00,,,0.00,Wunderground v.1.15,2013-05-03 17:45:00,
2013-05-03 13:50:00,62.2,48.6,30.22,NE,43,3.0,6.0,61,0.00,,,0.00,Wunderground v.1.15,2013-05-03 17:50:00,
2013-05-03 13:55:00,62.4,49.2,30.22,NE,49,3.0,6.0,62,0.00,,,0.00,Wunderground v.1.15,2013-05-03 17:55:00,
2013-05-03 14:00:00,62.4,48.8,30.22,ENE,76,3.0,3.0,61,0.00,,,0.00,Wunderground v.1.15,2013-05-03 18:00:00,
2013-05-03 14:05:00,62.5,48.9,30.21,NNE,30,3.0,5.0,61,0.00,,,0.00,Wunderground v.1.15,2013-05-03 18:05:00,
2013-05-03 14:10:00,62.7,49.1,30.21,NE,55,3.0,3.0,61,0.00,,,0.00,Wunderground v.1.15,2013-05-03 18:10:00,
2013-05-03 14:15:00,62.8,49.6,30.21,NE,42,3.0,3.0,62,0.00,,,0.00,Wunderground v.1.15,2013-05-03 18:15:00,
2013-05-03 14:20:00,62.8,48.7,30.21,NE,45,2.0,2.0,60,0.00,,,0.00,Wunderground v.1.15,2013-05-03 18:20:00,
2013-05-03 14:30:00,63.5,49.4,30.21,NE,51,2.0,3.0,60,0.00,,,0.00,Wunderground v.1.15,2013-05-03 18:30:00,
2013-05-03 14:35:00,63.5,49.8,30.21,NE,51,2.0,3.0,61,0.00,,,0.00,Wunderground v.1.15,2013-05-03 18:35:00,
2013-05-03 14:40:00,63.3,49.2,30.21,ENE,60,3.0,3.0,60,0.00,,,0.00,Wunderground v.1.15,2013-05-03 18:40:00,
2013-05-03 14:45:00,63.3,49.6,30.21,NE,56,3.0,3.0,61,0.00,,,0.00,Wunderground v.1.15,2013-05-03 18:45:00,
2013-05-03 14:50:00,63.3,49.6,30.21,NE,38,2.0,2.0,61,0.00,,,0.00,Wunderground v.1.15,2013-05-03 18:50:00,
2013-05-03 14:55:00,63.3,50.1,30.20,NE,36,1.0,2.0,62,0.00,,,0.00,Wunderground v.1.15,2013-05-03 18:55:00,
2013-05-03 15:00:00,63.5,50.2,30.20,NE,47,1.0,5.0,62,0.00,,,0.00,Wunderground v.1.15,2013-05-03 19:00:00,
2013-05-03 15:05:00,63.5,50.2,30.21,ENE,68,2.0,5.0,62,0.00,,,0.00,Wunderground v.1.15,2013-05-03 19:05:00,
2013-05-03 15:10:00,63.2,49.1,30.20,ENE,78,2.0,2.0,60,0.00,,,0.00,Wunderground v.1.15,2013-05-03 19:10:00,
2013-05-03 15:15:00,63.3,49.6,30.20,ENE,71,2.0,2.0,61,0.00,,,0.00,Wunderground v.1.15,2013-05-03 19:15:00,
2013-05-03 15:20:00,63.3,50.1,30.20,NE,48,1.0,4.0,62,0.00,,,0.00,Wunderground v.1.15,2013-05-03 19:20:00,
2013-05-03 15:30:00,63.3,49.6,30.19,NE,42,2.0,2.0,61,0.00,,,0.00,Wunderground v.1.15,2013-05-03 19:30:00,
2013-05-03 15:35:00,63.2,50.0,30.19,NE,51,2.0,2.0,62,0.00,,,0.00,Wunderground v.1.15,2013-05-03 19:35:00,
2013-05-03 15:40:00,63.2,50.0,30.19,NE,51,1.0,2.0,62,0.00,,,0.00,Wunderground v.1.15,2013-05-03 19:40:00,
2013-05-03 15:50:00,63.0,49.3,30.18,NE,52,2.0,2.0,61,0.00,,,0.00,Wunderground v.1.15,2013-05-03 19:50:00,
2013-05-03 15:55:00,63.0,49.8,30.18,NE,52,2.0,2.0,62,0.00,,,0.00,Wunderground v.1.15,2013-05-03 19:55:00,
2013-05-03 16:00:00,62.8,50.0,30.18,NE,52,1.0,1.0,63,0.00,,,0.00,Wunderground v.1.15,2013-05-03 20:00:00,
2013-05-03 16:05:00,62.8,49.6,30.18,NE,51,1.0,1.0,62,0.00,,,0.00,Wunderground v.1.15,2013-05-03 20:05:00,
2013-05-03 16:10:00,62.8,50.4,30.17,NE,51,1.0,1.0,64,0.00,,,0.00,Wunderground v.1.15,2013-05-03 20:10:00,
2013-05-03 16:15:00,62.8,49.6,30.17,NE,51,1.0,1.0,62,0.00,,,0.00,Wunderground v.1.15,2013-05-03 20:15:00,
2013-05-03 16:20:00,62.8,49.6,30.17,NE,52,1.0,1.0,62,0.00,,,0.00,Wunderground v.1.15,2013-05-03 20:20:00,
2013-05-03 16:25:00,63.0,50.2,30.17,NE,52,0.0,1.0,63,0.00,,,0.00,Wunderground v.1.15,2013-05-03 20:25:00,
2013-05-03 16:30:00,63.0,49.8,30.17,NE,53,1.0,1.0,62,0.00,,,0.00,Wunderground v.1.15,2013-05-03 20:30:00,
2013-05-03 16:35:00,63.0,49.8,30.17,NE,53,2.0,2.0,62,0.00,,,0.00,Wunderground v.1.15,2013-05-03 20:35:00,
2013-05-03 16:40:00,62.8,50.0,30.17,NE,53,1.0,1.0,63,0.00,,,0.00,Wunderground v.1.15,2013-05-03 20:40:00,
2013-05-03 16:45:00,62.8,50.4,30.17,NE,53,1.0,1.0,64,0.00,,,0.00,Wunderground v.1.15,2013-05-03 20:45:00,
2013-05-03 16:50:00,62.8,49.6,30.17,East,80,2.0,2.0,62,0.00,,,0.00,Wunderground v.1.15,2013-05-03 20:50:00,
2013-05-03 16:55:00,62.7,49.5,30.17,East,80,1.0,2.0,62,0.00,,,0.00,Wunderground v.1.15,2013-05-03 20:55:00,
2013-05-03 17:00:00,62.7,49.5,30.17,East,80,1.0,1.0,62,0.00,,,0.00,Wunderground v.1.15,2013-05-03 21:00:00,
2013-05-03 17:10:00,62.8,50.0,30.17,ENE,63,1.0,1.0,63,0.00,,,0.00,Wunderground v.1.15,2013-05-03 21:10:00,
2013-05-03 17:15:00,62.7,49.5,30.17,ENE,63,1.0,1.0,62,0.00,,,0.00,Wunderground v.1.15,2013-05-03 21:15:00,
2013-05-03 17:20:00,62.7,49.9,30.17,ENE,63,1.0,1.0,63,0.00,,,0.00,Wunderground v.1.15,2013-05-03 21:20:00,
2013-05-03 17:25:00,62.7,49.9,30.17,ENE,71,1.0,1.0,63,0.00,,,0.00,Wunderground v.1.15,2013-05-03 21:25:00,
2013-05-03 17:30:00,62.7,49.9,30.17,ENE,71,1.0,1.0,63,0.00,,,0.00,Wunderground v.1.15,2013-05-03 21:30:00,
2013-05-03 17:35:00,62.5,50.2,30.17,ENE,71,0.0,1.0,64,0.00,,,0.00,Wunderground v.1.15,2013-05-03 21:35:00,
2013-05-03 17:40:00,62.5,50.6,30.16,ENE,71,1.0,1.0,65,0.00,,,0.00,Wunderground v.1.15,2013-05-03 21:40:00,
2013-05-03 17:50:00,62.5,50.6,30.16,ENE,72,0.0,1.0,65,0.00,,,0.00,Wunderground v.1.15,2013-05-03 21:50:00,
2013-05-03 17:55:00,62.5,51.0,30.16,ENE,72,0.0,1.0,66,0.00,,,0.00,Wunderground v.1.15,2013-05-03 21:55:00,
2013-05-03 18:00:00,62.4,50.9,30.16,NE,52,0.0,1.0,66,0.00,,,0.00,Wunderground v.1.15,2013-05-03 22:00:00,
2013-05-03 18:05:00,62.4,50.9,30.16,NE,52,1.0,3.0,66,0.00,,,0.00,Wunderground v.1.15,2013-05-03 22:05:00,
2013-05-03 18:10:00,62.2,50.3,30.16,NE,53,2.0,2.0,65,0.00,,,0.00,Wunderground v.1.15,2013-05-03 22:10:00,
2013-05-03 18:15:00,62.2,50.3,30.16,NE,53,2.0,2.0,65,0.00,,,0.00,Wunderground v.1.15,2013-05-03 22:15:00,
2013-05-03 18:20:00,62.0,50.5,30.16,NE,53,1.0,3.0,66,0.00,,,0.00,Wunderground v.1.15,2013-05-03 22:20:00,
2013-05-03 18:25:00,62.0,50.1,30.15,NE,53,1.0,3.0,65,0.00,,,0.00,Wunderground v.1.15,2013-05-03 22:25:00,
2013-05-03 18:30:00,62.0,50.5,30.15,NE,53,1.0,1.0,66,0.00,,,0.00,Wunderground v.1.15,2013-05-03 22:30:00,
2013-05-03 18:35:00,62.0,50.1,30.15,NE,53,1.0,1.0,65,0.00,,,0.00,Wunderground v.1.15,2013-05-03 22:35:00,
2013-05-03 18:40:00,62.0,50.5,30.15,NE,53,1.0,1.0,66,0.00,,,0.00,Wunderground v.1.15,2013-05-03 22:40:00,
2013-05-03 18:45:00,62.2,50.7,30.15,NE,39,0.0,1.0,66,0.00,,,0.00,Wunderground v.1.15,2013-05-03 22:45:00,
2013-05-03 18:50:00,62.2,51.1,30.15,NE,39,0.0,1.0,67,0.00,,,0.00,Wunderground v.1.15,2013-05-03 22:50:00,
2013-05-03 18:55:00,62.0,50.9,30.15,NE,39,0.0,1.0,67,0.00,,,0.00,Wunderground v.1.15,2013-05-03 22:55:00,
2013-05-03 19:00:00,62.0,51.3,30.15,NE,39,0.0,0.0,68,0.00,,,0.00,Wunderground v.1.15,2013-05-03 23:00:00,
2013-05-03 19:05:00,62.0,51.3,30.15,NE,39,0.0,0.0,68,0.00,,,0.00,Wunderground v.1.15,2013-05-03 23:05:00,
2013-05-03 19:10:00,61.9,51.2,30.15,NE,39,0.0,1.0,68,0.00,,,0.00,Wunderground v.1.15,2013-05-03 23:10:00,
2013-05-03 19:15:00,61.7,50.6,30.15,NE,39,1.0,1.0,67,0.00,,,0.00,Wunderground v.1.15,2013-05-03 23:15:00,
2013-05-03 19:20:00,61.6,50.1,30.15,NE,50,1.0,4.0,66,0.00,,,0.00,Wunderground v.1.15,2013-05-03 23:20:00,
2013-05-03 19:25:00,61.2,47.2,30.15,ENE,58,2.0,4.0,60,0.00,,,0.00,Wunderground v.1.15,2013-05-03 23:25:00,
2013-05-03 19:30:00,61.1,47.1,30.15,NE,56,2.0,5.0,60,0.00,,,0.00,Wunderground v.1.15,2013-05-03 23:30:00,
2013-05-03 19:35:00,60.9,45.6,30.15,ENE,61,2.0,5.0,57,0.00,,,0.00,Wunderground v.1.15,2013-05-03 23:35:00,
2013-05-03 19:40:00,60.8,45.5,30.15,ENE,59,2.0,2.0,57,0.00,,,0.00,Wunderground v.1.15,2013-05-03 23:40:00,
2013-05-03 19:50:00,60.3,43.6,30.15,NE,52,2.0,2.0,54,0.00,,,0.00,Wunderground v.1.15,2013-05-03 23:50:00,
2013-05-03 19:55:00,60.1,43.9,30.15,ENE,69,2.0,2.0,55,0.00,,,0.00,Wunderground v.1.15,2013-05-03 23:55:00,
2013-05-03 20:00:00,60.0,43.8,30.15,NE,49,2.0,2.0,55,0.00,,,0.00,Wunderground v.1.15,2013-05-04 00:00:00,
2013-05-03 20:10:00,59.5,41.3,30.16,ENE,70,2.0,2.0,51,0.00,,,0.00,Wunderground v.1.15,2013-05-04 00:10:00,
2013-05-03 20:15:00,59.4,41.3,30.16,East,89,2.0,2.0,51,0.00,,,0.00,Wunderground v.1.15,2013-05-04 00:15:00,
2013-05-03 20:20:00,59.2,41.6,30.16,East,90,2.0,2.0,52,0.00,,,0.00,Wunderground v.1.15,2013-05-04 00:20:00,
2013-05-03 20:30:00,58.9,40.3,30.16,ENE,66,2.0,2.0,50,0.00,,,0.00,Wunderground v.1.15,2013-05-04 00:30:00,
2013-05-03 20:35:00,58.7,40.1,30.16,NE,55,2.0,3.0,50,0.00,,,0.00,Wunderground v.1.15,2013-05-04 00:35:00,
2013-05-03 20:40:00,58.6,40.0,30.16,ENE,59,2.0,2.0,50,0.00,,,0.00,Wunderground v.1.15,2013-05-04 00:40:00,
2013-05-03 20:45:00,58.4,39.8,30.16,East,89,2.0,2.0,50,0.00,,,0.00,Wunderground v.1.15,2013-05-04 00:45:00,
2013-05-03 20:50:00,58.3,40.7,30.17,ENE,71,2.0,2.0,52,0.00,,,0.00,Wunderground v.1.15,2013-05-04 00:50:00,
2013-05-03 20:55:00,58.0,39.5,30.17,NE,54,2.0,2.0,50,0.00,,,0.00,Wunderground v.1.15,2013-05-04 00:55:00,
2013-05-03 21:00:00,57.8,39.3,30.17,NE,51,3.0,4.0,50,0.00,,,0.00,Wunderground v.1.15,2013-05-04 01:00:00,
2013-05-03 21:05:00,57.7,39.2,30.17,ENE,59,3.0,4.0,50,0.00,,,0.00,Wunderground v.1.15,2013-05-04 01:05:00,
2013-05-03 21:10:00,57.5,39.0,30.17,ENE,75,3.0,3.0,50,0.00,,,0.00,Wunderground v.1.15,2013-05-04 01:10:00,
2013-05-03 21:20:00,57.1,38.6,30.17,NE,54,3.0,5.0,50,0.00,,,0.00,Wunderground v.1.15,2013-05-04 01:20:00,
2013-05-03 21:25:00,56.9,38.4,30.17,ENE,63,3.0,5.0,50,0.00,,,0.00,Wunderground v.1.15,2013-05-04 01:25:00,
2013-05-03 21:30:00,56.8,38.9,30.17,NE,46,3.0,5.0,51,0.00,,,0.00,Wunderground v.1.15,2013-05-04 01:30:00,
2013-05-03 21:35:00,56.6,39.7,30.18,NE,55,3.0,5.0,53,0.00,,,0.00,Wunderground v.1.15,2013-05-04 01:35:00,
2013-05-03 21:40:00,56.3,39.9,30.17,ENE,61,3.0,4.0,54,0.00,,,0.00,Wunderground v.1.15,2013-05-04 01:40:00,
2013-05-03 21:45:00,56.1,39.7,30.17,ENE,76,3.0,4.0,54,0.00,,,0.00,Wunderground v.1.15,2013-05-04 01:45:00,
2013-05-03 21:55:00,55.8,40.8,30.18,NE,49,4.0,6.0,57,0.00,,,0.00,Wunderground v.1.15,2013-05-04 01:55:00,
2013-05-03 22:00:00,55.7,40.7,30.18,East,80,4.0,4.0,57,0.00,,,0.00,Wunderground v.1.15,2013-05-04 02:00:00,
2013-05-03 22:05:00,55.4,40.9,30.18,ENE,64,4.0,4.0,58,0.00,,,0.00,Wunderground v.1.15,2013-05-04 02:05:00,
2013-05-03 22:10:00,55.2,41.5,30.18,ENE,76,3.0,4.0,60,0.00,,,0.00,Wunderground v.1.15,2013-05-04 02:10:00,
2013-05-03 22:15:00,55.1,41.5,30.18,NE,54,3.0,4.0,60,0.00,,,0.00,Wunderground v.1.15,2013-05-04 02:15:00,
2013-05-03 22:20:00,54.8,41.2,30.18,ENE,67,3.0,3.0,60,0.00,,,0.00,Wunderground v.1.15,2013-05-04 02:20:00,
2013-05-03 22:30:00,54.5,41.7,30.19,East,82,3.0,3.0,62,0.00,,,0.00,Wunderground v.1.15,2013-05-04 02:30:00,
2013-05-03 22:35:00,54.2,41.9,30.19,NE,56,2.0,3.0,63,0.00,,,0.00,Wunderground v.1.15,2013-05-04 02:35:00,
2013-05-03 22:40:00,54.1,42.2,30.19,ENE,68,1.0,1.0,64,0.00,,,0.00,Wunderground v.1.15,2013-05-04 02:40:00,
2013-05-03 22:50:00,53.8,42.3,30.19,NE,48,1.0,4.0,65,0.00,,,0.00,Wunderground v.1.15,2013-05-04 02:50:00,
2013-05-03 22:55:00,53.5,42.8,30.19,East,84,2.0,4.0,67,0.00,,,0.00,Wunderground v.1.15,2013-05-04 02:55:00,
2013-05-03 23:00:00,53.3,42.6,30.19,NE,53,2.0,3.0,67,0.00,,,0.00,Wunderground v.1.15,2013-05-04 03:00:00,
2013-05-03 23:05:00,53.0,42.7,30.19,NE,51,2.0,5.0,68,0.00,,,0.00,Wunderground v.1.15,2013-05-04 03:05:00,
2013-05-03 23:10:00,52.7,42.4,30.19,East,82,3.0,3.0,68,0.00,,,0.00,Wunderground v.1.15,2013-05-04 03:10:00,
2013-05-03 23:15:00,52.6,42.3,30.19,ENE,72,3.0,3.0,68,0.00,,,0.00,Wunderground v.1.15,2013-05-04 03:15:00,
2013-05-03 23:20:00,52.4,42.5,30.19,ENE,69,2.0,2.0,69,0.00,,,0.00,Wunderground v.1.15,2013-05-04 03:20:00,
2013-05-03 23:25:00,52.1,41.9,30.19,ENE,66,2.0,2.0,68,0.00,,,0.00,Wunderground v.1.15,2013-05-04 03:25:00,
2013-05-03 23:30:00,52.0,42.1,30.19,East,86,2.0,2.0,69,0.00,,,0.00,Wunderground v.1.15,2013-05-04 03:30:00,
2013-05-03 23:35:00,51.8,41.9,30.19,NE,56,3.0,3.0,69,0.00,,,0.00,Wunderground v.1.15,2013-05-04 03:35:00,
2013-05-03 23:40:00,51.7,41.9,30.19,ENE,69,3.0,3.0,69,0.00,,,0.00,Wunderground v.1.15,2013-05-04 03:40:00,
2013-05-03 23:45:00,51.6,42.1,30.19,ENE,75,2.0,3.0,70,0.00,,,0.00,Wunderground v.1.15,2013-05-04 03:45:00,
2013-05-03 23:50:00,51.4,41.9,30.19,ENE,60,2.0,2.0,70,0.00,,,0.00,Wunderground v.1.15,2013-05-04 03:50:00,
2013-05-03 23:55:00,51.3,41.8,30.19,ENE,57,1.0,2.0,70,0.00,,,0.00,Wunderground v.1.15,2013-05-04 03:55:00,